Regional Weather Roundup
Issued by NWS

Home | Current Version | Previous Version | Graphics & Text | Print | Product List | Glossary On
Versions: 1 2 3 4 5 6 7 8 9 10 11 12 13 14 15 16 17 18 19 20 21 22 23 24 25 26 27 28 29 30 31 32 33 34 35 36 37 38 39 40 41 42 43 44 45 46 47 48 49 50
000
ASUS45 KBOU 272207
RWRCO

WEATHER ROUNDUP FOR COLORADO
NATIONAL WEATHER SERVICE DENVER/BOULDER CO
400 PM MDT FRI MAR 27 2015

NOTE: "FAIR" INDICATES FEW OR NO CLOUDS BELOW 12000 FEET WITH NO
SIGNIFICANT WEATHER AND/OR OBSTRUCTIONS TO VISIBILITY.

COZ001>005-013-030-031-272300-
...NORTHWEST COLORADO...

CITY           SKY/WX    TMP DP  RH WIND       PRES   REMARKS
CRAIG          SUNNY     64  29  26 NW12      30.20F
HAYDEN         PTSUNNY   63  28  27 W15G23    30.22F
MEEKER         SUNNY     65  28  24 SW14      30.22F
MOUNT WERNER   NOT AVBL
STEAMBOAT SPGS MOSUNNY   57  31  38 CALM      30.24F
WALDEN         SUNNY     54  27  35 W23       30.26F
$$

COZ006>008-011-272300-
...WEST CENTRAL VALLEYS...

CITY           SKY/WX    TMP DP  RH WIND       PRES   REMARKS
GRAND JUNCTION SUNNY     70  25  18 NW9       30.16F
MONTROSE       SUNNY     69  22  16 VRB6      30.22F
EAGLE          MOSUNNY   66  25  20 SW8       30.21F
RIFLE          SUNNY     69  24  18 CALM      30.17F
DELTA          SUNNY     75  20  13 W14G20    30.17F
NUCLA          SUNNY     70  19  14 W3G17     30.25F
$$

COZ017>023-064>068-272300-
...SOUTHWEST COLORADO...

CITY           SKY/WX    TMP DP  RH WIND       PRES   REMARKS
DURANGO        MOSUNNY   70  22  16 SW18G28   30.18F
CORTEZ         SUNNY     70  22  16 W14G21    30.21F
PAGOSA SPRINGS SUNNY     65  17  15 W12G18    30.23F
TELLURIDE      PTSUNNY   58  19  22 W16G24    30.35F
WOLF CREEK PAS MOSUNNY   43  18  36 SW13G20   30.47F
$$

COZ009-010-012-014-032>034-037-058>063-272300-
...CENTRAL COLORADO...

CITY           SKY/WX    TMP DP  RH WIND       PRES   REMARKS
ASPEN          SUNNY     58  24  27 NW9G17    30.25F
BUENA VISTA    MOSUNNY   64  13  14 W14G22    30.22F
COPPER MTN     MOSUNNY   37  23  56 W22G36    30.42F
BERTHOUD PASS  PTSUNNY   30  23  74 NW32G46   30.40S WCI  15
COTTONWOOD PAS MOSUNNY   54  10  17 W12G23    30.31F
GUNNISON       SUNNY     59  19  21 N9G17     30.28F
KREMMLING      SUNNY     59  21  23 NW10G18   30.26F
LEADVILLE      PTSUNNY   45  21  38 NW16G25   30.32F
SALIDA         PTSUNNY   67  17  14 W14G23    30.27F
SUNLIGHT       SUNNY     48  23  37 W8        30.44F
WILKERSON PASS PTSUNNY   45  18  33 NE7G20    30.40S
$$

COZ069>075-272300-
...SAN LUIS VALLEY/SANGRE DE CRISTO MOUNTAINS...

CITY           SKY/WX    TMP DP  RH WIND       PRES   REMARKS
ALAMOSA        MOSUNNY   67  14  13 VRB6      30.18F
LA VETA PASS   SUNNY     54  19  26 SW6       30.32F
SAGUACHE       SUNNY     64  19  17 N14G22    30.22F
$$

COZ035-036-038>040-272300-
...NORTHERN COLORADO FRONT RANGE...

CITY           SKY/WX    TMP DP  RH WIND       PRES   REMARKS
DENVER INTL AP MOSUNNY   68  29  23 NW9       30.09F
DMNS CITY PARK   N/A     70  30  23 E7G15     30.07F
AURORA         MOSUNNY   67  29  24 N13       30.11F
FRONT RANGE AP MOSUNNY   68  32  26 N8G18     30.11F
ERIE MUNI ARPT MOSUNNY   67  28  22 E3        30.07F
BOULDER MUN AP MOSUNNY   68  30  24 NE8       30.07F
CENTENNIAL     MOSUNNY   66  28  24 W9        30.10F
BROOMFIELD     MOSUNNY   84  28  13 N5        30.11S
FORT COLLINS   SUNNY     72  30  21 NW15G24   30.06F
LONGMONT       PTSUNNY   75  30  19 S7        30.08F
$$

COZ041-046-047-076>085-087-088-272300-
...PIKES PEAK/PALMER DIVIDE AND SOUTHERN FOOTHILLS...

CITY           SKY/WX    TMP DP  RH WIND       PRES   REMARKS
COLO. SPRINGS  MOSUNNY   66  25  21 S10       30.12F
A. F. ACADEMY  MOSUNNY   65  25  21 NW7       30.13F
ELLICOTT       MOSUNNY  N/A N/A N/A S3        30.11F
FALCON         PTSUNNY   65  24  21 W3        30.16F
FORT CARSON    MOSUNNY   64  28  25 SE1       30.10F
LIMON          SUNNY     66  28  24 NW17G25   30.09F
MONUMENT HILL  SUNNY     61  27  27 N17G28    30.16F
TRINIDAD       SUNNY     70  26  19 E8        30.09F
$$

COZ042>045-048>051-090-091-272300-
...NORTHEAST COLORADO...

CITY           SKY/WX    TMP DP  RH WIND       PRES   REMARKS
GREELEY ARPT   PTSUNNY   73  28  19 NW25G32   30.02F
AKRON          PTSUNNY   70  30  22 NW23G30   30.03F
BURLINGTON     CLOUDY    67  32  27 N16       30.04F
WRAY           PTSUNNY   70  32  24 NW20G28   30.00F
STERLING       SUNNY     72  32  23 N24G30    29.99F
HOLYOKE        PTSUNNY   72  36  26 NW15G25   29.99F
FORT MORGAN    SUNNY    N/A N/A N/A N23G35    30.03F
$$

COZ086-089-092>099-272300-
...SOUTHEAST COLORADO...

CITY           SKY/WX    TMP DP  RH WIND       PRES   REMARKS
PUEBLO         MOSUNNY   70  28  21 SE10G18   30.05F
LA JUNTA       SUNNY     71  30  21 S5        30.06F
LAMAR          NOT AVBL
SPRINGFIELD      N/A     68  30  24 NW8       30.08F
$$


USA.gov is the U.S. government's official web portal to all federal, state and local government web resources and services.